{"data":{"norad_id":53036,"intl_designator":"2022-076BC","name":"STARLINK-4155","alt_names":[],"object_type":"PAYLOAD","status":"ACTIVE","operator":null,"country":"US","launch_date":"2022-07-07","launch_site_code":"AFETR","launch_vehicle":null,"mission":null,"orbit_class":"UNKNOWN","rcs_meters":null,"size_class":null,"mass_kg":null,"dimensions":null,"purposes":["comms"],"wikipedia_slug":null,"has_3d_model":false,"image_url":null,"decayed_at":null,"tle_current":{"epoch":"2026-09-20T04:00:03.000096Z","epoch_age_seconds":98257,"freshness":"FRESH","line1":"1 53036U 22076BC  26263.16670139 -.00015641  00000+0 -43818-3 0  9991","line2":"2 53036  53.1598 276.4967 0001509  83.2872 168.4127 15.35416007  5811","mean_motion":15.35416007,"eccentricity":0.0001509,"inclination_deg":53.1598,"raan_deg":276.4967,"arg_perigee_deg":83.2872,"mean_anomaly_deg":168.4127,"bstar":-0.00043818,"rev_number":581,"period_min":93.785657661181,"perigee_km":458.65329125137,"apogee_km":460.71694596676,"semimajor_km":6837.8221186091,"source":"CELESTRAK","updated_at":"2026-09-20T09:00:40.149114Z"}}}